Weather History for Indian Springs, NV

Change the Weather History Date:

Wednesday, March 21, 2012

  Actual Average (KDRA) Record (KDRA)
Temperature  
Mean Temperature 53 °F -  
Max Temperature 72 °F 69 °F 87 °F (2004)
Min Temperature 34 °F 42 °F 32 °F (2006)
Degree Days  
Heating Degree Days 12    
Growing Degree Days 3 (Base 50)    
Moisture  
Dew Point 25 °F    
Average Humidity 34    
Maximum Humidity 61    
Minimum Humidity 18    
Precipitation  
Precipitation 0.00 in - - ()
Sea Level Pressure  
Sea Level Pressure 30.04 in    
Wind  
Wind Speed 2 mph (ESE)    
Max Wind Speed 12 mph    
Max Gust Speed -    
Visibility 9 miles    
Events      
Averages and records for this station are not official NWS values.
T = Trace of Precipitation, MM = Missing Value Source: NWS Daily Summary

Daily Weather History Graph

Daily Weather History Graph

Search for Another Location

Airport:

Trip Planner

Search our weather history database for the weather conditions in past years. The results will help you decide how hot, cold, wet, or windy it might be!

Date:

Astronomy

Mar. 21, 2012 Rise Set
Actual Time 6:43 AM PDT 6:55 PM PDT
Civil Twilight 6:18 AM PDT 7:21 PM PDT
Nautical Twilight 5:48 AM PDT 7:51 PM PDT
Astronomical Twilight 5:17 AM PDT 8:22 PM PDT
Moon 5:56 AM PDT (3/21) 6:26 PM PDT (3/21)
Length of Visible Light 13h 03m
Length of Day
12h 11m
Waning Crescent, 1% of the Moon is Illuminated
Mar 21
Waning Crescent
Mar 22
New
Mar 30
First Quarter
Apr 6
Full
Apr 13
Last Quarter

Hourly Weather History & Observations

Time (PDT) Temp. Windchill Dew Point Humidity Pressure Visibility Wind Dir Wind Speed Gust Speed Precip Events Conditions
12:55 AM 43.3 °F - 20.1 °F 40% 30.11 in 10.0 mi Calm Calm - N/A   Clear
1:55 AM 44.2 °F - 23.0 °F 43% 30.10 in 10.0 mi Calm Calm - N/A   Clear
2:55 AM 41.9 °F - 22.5 °F 46% 30.10 in 10.0 mi Calm Calm - N/A   Clear
3:55 AM 42.3 °F - 21.4 °F 43% 30.10 in 10.0 mi Calm Calm - N/A   Clear
4:55 AM 39.4 °F 37.2 °F 22.3 °F 50% 30.09 in 10.0 mi West 3.5 mph - N/A   Clear
5:55 AM 37.6 °F - 25.2 °F 61% 30.11 in 7.0 mi Calm Calm - N/A   Clear
6:55 AM 34.0 °F 29.8 °F 21.9 °F 61% 30.13 in 4.0 mi WNW 4.6 mph - N/A   Haze
7:55 AM 41.7 °F - 23.5 °F 49% 30.13 in 7.0 mi Calm Calm - N/A   Clear
8:55 AM 46.6 °F - 24.3 °F 42% 30.12 in 10.0 mi Calm Calm - N/A   Partly Cloudy
9:55 AM 53.2 °F - 22.5 °F 30% 30.10 in 10.0 mi Calm Calm - N/A   Partly Cloudy
11:55 AM 62.4 °F - 21.0 °F 20% 30.06 in 10.0 mi Calm Calm - N/A   Partly Cloudy
12:55 PM 65.1 °F - 22.5 °F 20% 30.04 in 10.0 mi Variable 3.5 mph - N/A   Partly Cloudy
1:55 PM 67.8 °F - 24.6 °F 20% 30.01 in 9.0 mi Variable 3.5 mph - N/A   Clear
2:55 PM 69.8 °F - 26.2 °F 20% 29.98 in 10.0 mi Variable 3.5 mph - N/A   Clear
3:55 PM 70.9 °F - 25.3 °F 18% 29.94 in 8.0 mi ESE 4.6 mph - N/A   Clear
4:55 PM 72.3 °F - 27.0 °F 18% 30.28 in 10.0 mi East 6.9 mph - N/A   Clear
5:55 PM 71.6 °F - 27.7 °F 20% 29.92 in 10.0 mi ESE 9.2 mph - N/A   Clear
6:55 PM 67.8 °F - 27.3 °F 22% 29.93 in 10.0 mi ESE 10.4 mph - N/A   Clear
7:55 PM 63.5 °F - 27.5 °F 26% 29.94 in 10.0 mi East 11.5 mph - N/A   Clear
8:55 PM 60.3 °F - 27.3 °F 29% 29.94 in 10.0 mi East 6.9 mph - N/A   Clear
9:55 PM 58.1 °F - 27.5 °F 31% 29.94 in 10.0 mi SSE 3.5 mph - N/A   Clear
10:55 PM 56.8 °F - 28.0 °F 33% 29.94 in 10.0 mi Calm Calm - N/A   Clear
11:55 PM 52.5 °F - 29.1 °F 41% 29.95 in 10.0 mi West 3.5 mph - N/A   Clear